Skip Page Navigation
NASA JPL Caltech
NASA Logo - Jet Propulsion Laboratory + View the NASA Portal
+ Center for Near-Earth Object Studies
JPL Home Earth Solar System Stars & Galaxies Technology
JPL Solar System Dynamics
BODIES ORBITS EPHEMERIDES TOOLS PHYSICAL DATA DISCOVERY FAQ SITE MAP
IMPORTANT: The SSD Announcement email list is now available. Major changes are coming in the near future, including possible hostname and/or URL changes. To be notified of such changes, subscribe to this email list.

Please visit this page for more details.


JPL Small-Body Database Browser
Search: [ help ]  
423759 (2006 DC49)
Classification: Main-belt Asteroid          SPK-ID: 2423759
Ephemeris | Orbit Diagram | Orbital Elements | Mission Design | Physical Parameters | Discovery Circumstances | Close-Approach Data ]

[ show orbit diagram ]
Orbital Elements at Epoch 2459000.5 (2020-May-31.0) TDB
Reference: JPL 13 (heliocentric ecliptic J2000)
 Element Value Uncertainty (1-sigma)   Units 
e .140274259543995 2.5097e-07  
a 2.734987167599173 3.8918e-08 au
q 2.351338867801871 6.9797e-07 au
i 13.19908027587755 1.4911e-05 deg
node .3694964327404238 2.9507e-05 deg
peri 212.3456701070972 6.0869e-05 deg
M 17.67918187360381 6.4669e-05 deg
tp 2458919.368215354067
(2020-Mar-10.86821535)
0.00029614 TDB
period 1652.081113331638
4.52
3.5263e-05
9.654e-08
d
yr
n .2179069762948944 4.6511e-09 deg/d
Q 3.118635467396476 4.4377e-08 au
  Orbit Determination Parameters
   # obs. used (total)      193  
   data-arc span      5563 days (15.23 yr)  
   first obs. used      2003-09-16  
   last obs. used      2018-12-09  
   planetary ephem.      DE431  
   SB-pert. ephem.      SB431-N16  
   condition code      0  
   norm. resid. RMS      .58236  
   source      ORB  
   producer      Otto Matic  
   solution date      2019-Jul-14 06:56:33  

Additional Information
 Earth MOID = 1.35795 au 
 Jupiter MOID = 1.88658 au 
 T_jup = 3.300 
[ show covariance matrix ]

Ephemeris | Orbit Diagram | Orbital Elements | Mission Design | Physical Parameters | Discovery Circumstances | Close-Approach Data ]

Physical Parameter Table
Parameter Symbol Value Units Sigma Reference Notes
absolute magnitude H 16.3   n/a MPO423498  

423759 (2006 DC49)          Discovered 2006-Feb-21 by CSS at Catalina
Reference: Last Updated: 2015-02-04

[ show close-approach data ]
Ephemeris | Orbit Diagram | Orbital Elements | Mission Design | Physical Parameters | Discovery Circumstances | Close-Approach Data ]
ABOUT SSD CREDITS/AWARDS PRIVACY/COPYRIGHT GLOSSARY LINKS
FirstGov 2020-Feb-21 00:21 UT
(server date/time)  
NASA Home Page
Site Manager:   Ryan S. Park
Webmaster  Alan B. Chamberlin